SL-14 DEB, 45332

Orbit data source: Space-Track

SL-14 DEB, 45332 is space debris in LEO originally from a launch on Thu, 15 Aug 1991 UTC launched from the Plesetsk Missile And Space Complex (PKMTR). Debris objects in space refer to the collection of defunct objects orbiting the Earth. Examples of debris include non-operational satellites, rocket bodies, and fragments generated from explosions, collisions, or faulty payload assembly.

Loading next visibility...
Identifier
45332, 1991-056BW
Orbit
LEO
Country
Flag of CISCIS
Related business
Manufacturer
Unknown
Mission
Spacecraft
Bus & Motor
Unknown
Mass
Unknown
Launch date (UTC)
1991-08-15 (34 years ago)
Launch vehicle
Unknown
Launch site
Plesetsk Missile And Space Complex (PKMTR)
Object type
Payload
Rocket body
Debris
Shape & HBR
Unknown shape, 0.1 m
Radar Cross Section
Small (<0.1 m²)

Expand to show TLE details & history
Last TLE update: 17 hours ago

TLE from 17 hours ago
0 SL-14 DEB
1 45332U 91056BW  25309.28405999  .00000457  00000-0  11884-2 0  9993
2 45332  82.5510 308.3153 0108932  37.0120 323.8451 13.13109799272087
Epoch: 2025-11-05T06:49Z
TLE epoch observation values (Epoch: 2025-11-05T06:49:02.783Z)
Latitude
0.00003°
Longitude
161.29477°
Altitude
1,147.509 km
Speed
7.311 km/s
True Right ascension
20h 33m 15s
True Declination
0° 00' 00"
Sunlit
Object was in daylight at epoch
Visualization orbit readout
Latitude
Unknown
Longitude
Unknown
Altitude
Unknown
Speed
Unknown
Apparent Right ascension
Unknown
Apparent Declination
Unknown
Sunlit
N/A
Visualization observer readout
Local Sidereal Time
20:18:05
Azimuth
Unknown
Elevation
Unknown
Doppler factor
Unknown
Orbital elements
Apogee altitude
1,291.044 km
Perigee altitude
1,125.761 km
Semi-major axis
7,586.54 km
Eccentricity
0.01089
Inclination
82.551°
RAAN
308.3153°
Arg. of periapsis
37.012°
True anomaly
323.1005°
Mean anomaly
323.8451°
Eccentric anomaly
323.47362°
Mean motion
3.28456 °/min
Orbital period
109.6 mins
BSTAR
0.0011884
Loading maneuver chart data...
Computing Atmospheric mass density...
Loading historical data...
Loading historical data...
Loading historical data...
Loading historical data...
Loading historical data...
Loading historical data...
Loading historical data...

Documentation

Showing up to 5 results
|